Regional Weather Roundup
Issued by NWS Charleston, SC

Current Version | Previous Version | Graphics & Text | Print | Product List | Glossary On
Versions: 1 2 3 4 5 6 7 8 9 10 11 12 13 14 15 16 17 18 19 20 21 22 23 24 25 26 27 28 29 30 31 32 33 34 35 36 37 38 39 40 41 42 43 44 45 46 47 48 49 50
083
ASUS42 KCHS 210127
RWRCHS

REGIONAL WEATHER ROUNDUP
NATIONAL WEATHER SERVICE CHARLESTON SC
800 PM EST FRI JAN 20 2017

NOTE: "FAIR" INDICATES FEW OR NO CLOUDS BELOW 12,000 FEET WITH NO
SIGNIFICANT WEATHER AND/OR OBSTRUCTIONS TO VISIBILITY.

NOT ALL STATIONS ARE QUALITY CONTROLLED. USE DATA WITH CAUTION...
ESPECIALLY DEWPOINT OBSERVATIONS.

SCZ027-030-031-034>040-042>050-210200-
...SOUTHEAST SOUTH CAROLINA...

CITY           SKY/WX    TMP DP  RH WIND       PRES   REMARKS
N CHARLESTON   CLEAR     61  58  90 S8        29.90R
WATERFRONT PRK   N/A     63  61  93 VRB2      29.88R
MOUNT PLEASANT FAIR      61  61 100 CALM      29.91R
JOHNS ISLAND   FAIR      63  61  94 S8        29.91R
PINOPOLIS        N/A     66  61  82 VRB3      29.79R
MONCKS CORNER  FAIR      57  55  94 CALM      29.90R
SUMMERVILLE    FAIR      61  61 100 CALM      29.91R
BEAUFORT MCAS  PTCLDY    63  60  90 CALM      29.91R
BEAUFORT ARPT  FAIR      63  61  94 S5        29.91R
HILTON HEAD IS CLEAR     61  61 100 S5        29.92R
WALTERBORO     CLEAR     59  57  94 CALM      29.91R
ALLENDALE      FAIR      64  59  82 CALM      29.89R

...SOUTHERN MIDLANDS AND PEE DEE...

CITY           SKY/WX    TMP DP  RH WIND       PRES   REMARKS
GEORGETOWN     FAIR      59  59 100 CALM      29.90R
KINGSTREE      FAIR      61  55  82 CALM      29.88S
ORANGEBURG     CLEAR     64  58  80 S6        29.88R
BARNWELL       FAIR      68  61  77 SW6       29.89R
AIKEN          FAIR      61  54  77 S6        29.91S
MANNING        FAIR      59  55  88 CALM      29.89R
COLUMBIA       PTCLDY    64  55  72 CALM      29.86R
SUMTER         PTCLDY    61  55  78 S3        29.85R
FLORENCE       PTCLDY    61  59  93 CALM      29.87R
MYRTLE BEACH   CLEAR     61  55  82 S7        29.90
N MYRTLE BEACH CLEAR     55  55 100 CALM      29.89R FOG

$$

GAZ063-065-086>088-099>101-113>116-118-119-134>141-150-210200-
...SOUTHEAST GEORGIA...

CITY           SKY/WX    TMP DP  RH WIND       PRES   REMARKS
SAVANNAH ARPT  PTCLDY    64  58  80 S5        29.91R
HUNTER AAF     CLEAR     64  64 100 CALM      29.89R
FORT STEWART   MOCLDY    64  61  90 CALM      29.88R
STATESBORO     CLEAR     60  60 100 CALM      29.91R
SYLVANIA       CLEAR    N/A N/A N/A CALM      29.91R
CLAXTON        MOCLDY   N/A N/A N/A CALM      29.90S

...CSRA...CENTRAL AND FAR SOUTHEAST GEORGIA...

CITY           SKY/WX    TMP DP  RH WIND       PRES   REMARKS
THOMSON        CLEAR     66  60  81 CALM      29.92R
AUGUSTA-BUSH   CLEAR     68  58  70 SW8       29.87R
AUGUSTA-DANIEL CLEAR     69  55  60 SW5       29.88R
SWAINSBORO     CLOUDY    63  61  94 CALM      29.90S
VIDALIA        CLOUDY    66  64  94 S3        29.90R
EASTMAN        DRIZZLE   67  65  94 S3        29.93R
HAZLEHURST     LGT RAIN  71  67  85 S5        29.89S
ALMA           CLOUDY    67  67 100 S5        29.90S
WAYCROSS       CLOUDY    71  71 100 SW3       29.92S
JESUP          CLOUDY    68  64  88 CALM      29.92R
BAXLEY         CLOUDY    70  70 100 CALM      29.91R
BRUNSWICK      CLOUDY    70  64  83 CALM      29.93R
SAINT SIMONS   MOCLDY    67  63  87 S8        29.91R

$$

SCZ027-028-034-036>038-045-046-048>050-GAZ119-141-210200-
...LAKE AND SUPPLEMENTAL COASTAL OBSERVATIONS...

STATION/POSITION TIME  TEMP    WIND        PRES    WAVE   SWELL
                       AIR SEA DIR/SP/G            HT/PER HT/PER/DIR
                 (UTC) (F)     (DEG/KT/KT) (MB)    (FT/S) (FT/S/D)
WINYAH BAY       0045   61     200/  3     1012.0R
LAKE MURRAY      0020   63      CALM  /  1 1010.5
ACE BASIN NERRS  0030   61        CALM     1012.0S
FORT PULASKI     0100   63 58  210/  4/  5 1013.0
SAPELO ISLAND    0100   66     150/  5     1013.0

$$

ANZ835-935-AMZ111-154-330-350-352-354-370-450-454-472-210200-
...C-MAN AND BUOY OBSERVATIONS...

STATION/POSITION TIME  TEMP    WIND        PRES    WAVE   SWELL
                       AIR SEA DIR/SP/G            HT/PER HT/PER/DIR
                 (UTC) (F)     (DEG/KT/KT) (MB)    (FT/S) (FT/S/D)
BUOY 41004       0050   69 69  220/ 10/ 12 1012.2R   3/12   2/ 90/12
BUOY 41008       0050   63 61  160/  6/  6 1012.6R   2/ 5   2/140/ 5
FOLLY BEACH CMAN 0100   59     220/  5/  6 1013.0R
CAPERS NEARSHORE 0108   57 56  240/  4/  8 1012.6R
FRIPP NEARSHORE  0108   61 59  210/  6/  8 1012.6R


STATION/POSITION TIME  TEMP    WIND        PRES    WAVE   SWELL
                       AIR SEA DIR/SP/G            HT/PER HT/PER/DIR
                 (UTC) (F)     (DEG/KT/KT) (MB)    (FT/S) (FT/S/D)
5E ST. MARYS GA  0100      64                N/A     2/10
FRYING PAN BUOY  0100   69 71  230/ 14/ 17 1011.9
BUOY 41025       0050   67 76  290/ 12/ 16 1010.7R   5/13   3/ 90/13
CAPE LOOKOUT NC  0100   60     320/  3/  4 1011.1R
BUOY 41002       0050   72 70  200/  8/ 10 1013.4S   5/12   5/ 20/12
BUOY 41010       NOT AVBL
ST AUGUSTINE FL  0100   72 63  230/  4/  5 1014.5R


$$




USA.gov is the U.S. government's official web portal to all federal, state and local government web resources and services.